Time,TemperatureF,DewpointF,PressureIn,WindDirection,WindDirectionDegrees,WindSpeedMPH,WindSpeedGustMPH,Humidity,HourlyPrecipIn,Conditions,Clouds,dailyrainin,SoftwareType,DateUTC
2013-02-06 00:00:00,17.4,14.2,29.89,ESE,112,0.0,0.0,87,0.00,,OVC,0.00,WeatherDisplay:10.37,2013-02-06 05:00:00,
2013-02-06 00:01:00,17.4,14.2,29.89,ESE,112,0.0,0.0,87,0.00,,OVC,0.00,WeatherDisplay:10.37,2013-02-06 05:01:00,
2013-02-06 00:06:00,17.2,14.0,29.89,ESE,112,0.0,0.0,87,0.00,,OVC,0.00,WeatherDisplay:10.37,2013-02-06 05:06:00,
2013-02-06 00:11:00,17.2,14.0,29.89,ESE,112,0.0,0.0,87,0.00,,OVC,0.00,WeatherDisplay:10.37,2013-02-06 05:11:00,
2013-02-06 00:16:00,17.2,14.3,29.90,ESE,112,0.0,0.0,88,0.00,,OVC,0.00,WeatherDisplay:10.37,2013-02-06 05:16:00,
2013-02-06 00:21:00,17.2,14.3,29.90,ESE,112,0.0,0.0,88,0.00,,OVC,0.00,WeatherDisplay:10.37,2013-02-06 05:21:00,
2013-02-06 00:26:00,17.6,14.9,29.89,ESE,112,0.0,0.0,89,0.00,,OVC,0.00,WeatherDisplay:10.37,2013-02-06 05:26:00,
2013-02-06 00:31:00,17.6,14.9,29.89,ESE,112,0.0,0.0,89,0.00,,OVC,0.00,WeatherDisplay:10.37,2013-02-06 05:31:00,
2013-02-06 00:36:00,17.6,14.9,29.89,ESE,112,0.0,0.0,89,0.00,,OVC,0.00,WeatherDisplay:10.37,2013-02-06 05:36:00,
2013-02-06 00:41:00,17.6,14.7,29.89,ESE,112,0.0,0.0,88,0.00,,OVC,0.00,WeatherDisplay:10.37,2013-02-06 05:41:00,
2013-02-06 00:46:00,17.6,14.7,29.89,ESE,112,0.0,0.0,88,0.00,,OVC,0.00,WeatherDisplay:10.37,2013-02-06 05:46:00,
2013-02-06 00:51:00,17.6,14.7,29.90,ESE,112,0.0,0.0,88,0.00,,OVC,0.00,WeatherDisplay:10.37,2013-02-06 05:51:00,
2013-02-06 00:56:00,17.6,14.7,29.90,ESE,112,0.0,0.0,88,0.00,,OVC,0.00,WeatherDisplay:10.37,2013-02-06 05:56:00,
2013-02-06 01:01:00,17.6,14.7,29.90,ESE,112,0.0,0.0,88,0.00,,OVC,0.00,WeatherDisplay:10.37,2013-02-06 06:01:00,
2013-02-06 01:06:00,17.6,14.7,29.90,ESE,112,0.0,0.0,88,0.00,,OVC,0.00,WeatherDisplay:10.37,2013-02-06 06:06:00,
2013-02-06 01:11:00,17.8,14.8,29.90,ESE,112,0.0,0.0,88,0.00,,OVC,0.00,WeatherDisplay:10.37,2013-02-06 06:11:00,
2013-02-06 01:16:00,17.8,14.8,29.90,ESE,112,0.0,0.0,88,0.00,,OVC,0.00,WeatherDisplay:10.37,2013-02-06 06:16:00,
2013-02-06 01:21:00,17.8,15.1,29.90,ESE,112,0.0,0.0,89,0.00,,OVC,0.00,WeatherDisplay:10.37,2013-02-06 06:21:00,
2013-02-06 01:26:00,17.8,15.1,29.90,ESE,112,0.0,0.0,89,0.00,,OVC,0.00,WeatherDisplay:10.37,2013-02-06 06:26:00,
2013-02-06 01:31:00,18.1,15.4,29.90,ESE,112,0.0,0.0,89,0.00,,OVC,0.00,WeatherDisplay:10.37,2013-02-06 06:31:00,
2013-02-06 01:36:00,18.1,15.4,29.91,ESE,112,0.0,0.0,89,0.00,,OVC,0.00,WeatherDisplay:10.37,2013-02-06 06:36:00,
2013-02-06 01:41:00,18.1,15.4,29.91,ESE,112,0.0,0.0,89,0.00,,OVC,0.00,WeatherDisplay:10.37,2013-02-06 06:41:00,
2013-02-06 01:46:00,18.1,15.4,29.91,ESE,112,0.0,0.0,89,0.00,,OVC,0.00,WeatherDisplay:10.37,2013-02-06 06:46:00,
2013-02-06 01:51:00,18.3,15.6,29.91,ESE,112,0.0,0.0,89,0.00,,OVC,0.00,WeatherDisplay:10.37,2013-02-06 06:51:00,
2013-02-06 01:56:00,18.5,15.8,29.91,ESE,112,0.0,0.0,89,0.00,,OVC,0.00,WeatherDisplay:10.37,2013-02-06 06:56:00,
2013-02-06 02:01:00,18.5,15.8,29.91,ESE,112,0.0,0.0,89,0.00,,OVC,0.00,WeatherDisplay:10.37,2013-02-06 07:01:00,
2013-02-06 02:06:00,18.7,16.3,29.91,ESE,112,0.0,0.0,90,0.00,,OVC,0.00,WeatherDisplay:10.37,2013-02-06 07:06:00,
2013-02-06 02:11:00,18.7,16.3,29.91,ESE,112,0.0,0.0,90,0.00,,OVC,0.00,WeatherDisplay:10.37,2013-02-06 07:11:00,
2013-02-06 02:16:00,18.9,16.5,29.91,ESE,112,0.0,0.0,90,0.00,,OVC,0.00,WeatherDisplay:10.37,2013-02-06 07:16:00,
2013-02-06 02:21:00,18.9,16.5,29.91,ESE,112,0.0,0.0,90,0.00,,OVC,0.00,WeatherDisplay:10.37,2013-02-06 07:21:00,
2013-02-06 02:26:00,19.0,16.6,29.91,ESE,112,0.0,0.0,90,0.00,,OVC,0.00,WeatherDisplay:10.37,2013-02-06 07:26:00,
2013-02-06 02:31:00,19.2,16.7,29.91,ESE,112,0.0,0.0,90,0.00,,OVC,0.00,WeatherDisplay:10.37,2013-02-06 07:31:00,
2013-02-06 02:36:00,19.2,16.7,29.91,ESE,112,0.0,0.0,90,0.00,,OVC,0.00,WeatherDisplay:10.37,2013-02-06 07:36:00,
2013-02-06 02:41:00,19.4,16.9,29.91,ESE,112,0.0,0.0,90,0.00,,OVC,0.00,WeatherDisplay:10.37,2013-02-06 07:41:00,
2013-02-06 02:46:00,19.6,17.1,29.91,ESE,112,0.0,0.0,90,0.00,,OVC,0.00,WeatherDisplay:10.37,2013-02-06 07:46:00,
2013-02-06 02:51:00,19.8,17.3,29.91,ESE,112,0.0,0.0,90,0.00,,OVC,0.00,WeatherDisplay:10.37,2013-02-06 07:51:00,
2013-02-06 02:56:00,19.9,17.4,29.91,ESE,112,0.0,0.0,90,0.00,,OVC,0.00,WeatherDisplay:10.37,2013-02-06 07:56:00,
2013-02-06 03:01:00,20.1,17.6,29.91,ESE,112,0.0,0.0,90,0.00,,OVC,0.00,WeatherDisplay:10.37,2013-02-06 08:01:00,
2013-02-06 03:06:00,20.1,17.6,29.91,ESE,112,0.0,0.0,90,0.00,,OVC,0.00,WeatherDisplay:10.37,2013-02-06 08:06:00,
2013-02-06 03:11:00,20.3,17.8,29.91,ESE,112,0.0,0.0,90,0.00,,OVC,0.00,WeatherDisplay:10.37,2013-02-06 08:11:00,
2013-02-06 03:16:00,20.5,18.0,29.91,ESE,112,0.0,0.0,90,0.00,,OVC,0.00,WeatherDisplay:10.37,2013-02-06 08:16:00,
2013-02-06 03:21:00,20.7,18.2,29.91,ESE,112,0.0,0.0,90,0.00,,OVC,0.00,WeatherDisplay:10.37,2013-02-06 08:21:00,
2013-02-06 03:26:00,20.8,18.3,29.91,ESE,112,0.0,0.0,90,0.00,,OVC,0.00,WeatherDisplay:10.37,2013-02-06 08:26:00,
2013-02-06 03:31:00,21.0,19.0,29.91,ESE,112,0.4,1.1,92,0.00,,OVC,0.00,WeatherDisplay:10.37,2013-02-06 08:31:00,
2013-02-06 03:36:00,21.6,19.6,29.92,ESE,112,0.0,0.0,92,0.00,,OVC,0.00,WeatherDisplay:10.37,2013-02-06 08:36:00,
2013-02-06 03:41:00,21.9,19.9,29.92,ESE,112,0.0,0.0,92,0.00,,OVC,0.00,WeatherDisplay:10.37,2013-02-06 08:41:00,
2013-02-06 03:46:00,22.8,20.8,29.92,ESE,112,0.0,0.0,92,0.00,,OVC,0.00,WeatherDisplay:10.37,2013-02-06 08:46:00,
2013-02-06 03:51:00,23.0,21.0,29.92,ESE,112,0.4,2.2,92,0.00,,OVC,0.00,WeatherDisplay:10.37,2013-02-06 08:51:00,
2013-02-06 03:56:00,23.4,21.4,29.92,ESE,112,0.0,0.0,92,0.00,,OVC,0.00,WeatherDisplay:10.37,2013-02-06 08:56:00,
2013-02-06 04:01:00,23.5,21.5,29.92,ESE,112,0.8,1.1,92,0.00,,OVC,0.00,WeatherDisplay:10.37,2013-02-06 09:01:00,
2013-02-06 04:06:00,24.4,21.4,29.92,ESE,112,0.6,4.6,88,0.00,,OVC,0.00,WeatherDisplay:10.37,2013-02-06 09:06:00,
2013-02-06 04:11:00,24.8,21.8,29.92,ESE,112,2.4,2.4,88,0.00,,OVC,0.00,WeatherDisplay:10.37,2013-02-06 09:11:00,
2013-02-06 04:16:00,25.7,21.5,29.93,ESE,112,2.8,4.6,84,0.00,,OVC,0.00,WeatherDisplay:10.37,2013-02-06 09:16:00,
2013-02-06 04:21:00,26.2,21.7,29.93,ESE,112,4.1,4.6,83,0.00,,OVC,0.00,WeatherDisplay:10.37,2013-02-06 09:21:00,
2013-02-06 04:26:00,26.4,21.7,29.93,ESE,112,2.3,2.7,82,0.00,,OVC,0.00,WeatherDisplay:10.37,2013-02-06 09:26:00,
2013-02-06 04:32:00,26.6,22.1,29.93,ESE,112,1.6,2.7,83,0.00,,OVC,0.00,WeatherDisplay:10.37,2013-02-06 09:32:00,
2013-02-06 04:37:00,26.8,21.8,29.93,ESE,112,1.9,4.6,81,0.00,,OVC,0.00,WeatherDisplay:10.37,2013-02-06 09:37:00,
2013-02-06 04:42:00,26.8,22.0,29.93,ESE,112,2.7,4.2,82,0.00,,OVC,0.00,WeatherDisplay:10.37,2013-02-06 09:42:00,
2013-02-06 04:47:00,26.8,22.0,29.93,ESE,112,1.0,4.6,82,0.00,,OVC,0.00,WeatherDisplay:10.37,2013-02-06 09:47:00,
2013-02-06 04:52:00,27.0,22.2,29.93,ESE,112,3.0,4.6,82,0.00,,OVC,0.00,WeatherDisplay:10.37,2013-02-06 09:52:00,
2013-02-06 04:57:00,27.0,22.2,29.93,ESE,112,1.2,3.5,82,0.00,,OVC,0.00,WeatherDisplay:10.37,2013-02-06 09:57:00,
2013-02-06 05:02:00,27.0,22.5,29.94,ESE,112,2.4,3.5,83,0.00,,OVC,0.00,WeatherDisplay:10.37,2013-02-06 10:02:00,
2013-02-06 05:07:00,27.0,22.5,29.94,ESE,112,0.9,1.7,83,0.00,,OVC,0.00,WeatherDisplay:10.37,2013-02-06 10:07:00,
2013-02-06 05:12:00,27.1,22.3,29.94,ESE,112,4.2,4.2,82,0.00,,OVC,0.00,WeatherDisplay:10.37,2013-02-06 10:12:00,
2013-02-06 05:17:00,27.1,22.3,29.94,ESE,112,2.3,4.6,82,0.00,,OVC,0.00,WeatherDisplay:10.37,2013-02-06 10:17:00,
2013-02-06 05:22:00,27.3,22.5,29.94,ESE,112,2.2,3.5,82,0.00,,OVC,0.00,WeatherDisplay:10.37,2013-02-06 10:22:00,
2013-02-06 05:27:00,27.5,22.7,29.94,ESE,112,2.0,2.7,82,0.00,,OVC,0.00,WeatherDisplay:10.37,2013-02-06 10:27:00,
2013-02-06 05:32:00,27.5,22.7,29.94,ESE,112,2.9,3.5,82,0.00,,OVC,0.00,WeatherDisplay:10.37,2013-02-06 10:32:00,
2013-02-06 05:37:00,27.7,22.9,29.95,WNW,292,5.2,5.8,82,0.00,,OVC,0.00,WeatherDisplay:10.37,2013-02-06 10:37:00,
2013-02-06 05:42:00,27.9,23.1,29.95,WNW,292,3.6,4.7,82,0.00,,OVC,0.00,WeatherDisplay:10.37,2013-02-06 10:42:00,
2013-02-06 05:47:00,27.9,23.1,29.95,WNW,292,3.0,3.5,82,0.00,,OVC,0.00,WeatherDisplay:10.37,2013-02-06 10:47:00,
2013-02-06 05:52:00,27.9,23.1,29.96,WNW,292,3.7,4.6,82,0.00,,OVC,0.00,WeatherDisplay:10.37,2013-02-06 10:52:00,
2013-02-06 05:57:00,27.9,23.4,29.96,WNW,292,3.1,4.6,83,0.00,,OVC,0.00,WeatherDisplay:10.37,2013-02-06 10:57:00,
2013-02-06 06:02:00,27.9,23.4,29.96,WNW,292,2.1,3.5,83,0.00,,OVC,0.00,WeatherDisplay:10.37,2013-02-06 11:02:00,
2013-02-06 06:07:00,27.9,23.7,29.96,WNW,292,1.8,2.7,84,0.00,,OVC,0.00,WeatherDisplay:10.37,2013-02-06 11:07:00,
2013-02-06 06:12:00,27.9,23.7,29.97,WNW,292,3.8,6.9,84,0.00,,OVC,0.00,WeatherDisplay:10.37,2013-02-06 11:12:00,
2013-02-06 06:17:00,28.0,23.8,29.97,WNW,292,4.0,5.8,84,0.00,,OVC,0.00,WeatherDisplay:10.37,2013-02-06 11:17:00,
2013-02-06 06:22:00,28.0,23.8,29.97,WNW,292,2.4,2.4,84,0.00,,OVC,0.00,WeatherDisplay:10.37,2013-02-06 11:22:00,
2013-02-06 06:27:00,28.0,24.4,29.97,WNW,292,2.4,4.6,86,0.00,,OVC,0.00,WeatherDisplay:10.37,2013-02-06 11:27:00,
2013-02-06 06:32:00,27.9,25.3,29.97,WNW,292,2.9,4.6,90,0.00,,OVC,0.00,WeatherDisplay:10.37,2013-02-06 11:32:00,
2013-02-06 06:37:00,27.7,25.7,29.98,WNW,292,2.0,3.5,92,0.00,,OVC,0.00,WeatherDisplay:10.37,2013-02-06 11:37:00,
2013-02-06 06:42:00,27.5,25.2,29.98,WNW,292,3.9,4.6,91,0.00,,OVC,0.00,WeatherDisplay:10.37,2013-02-06 11:42:00,
2013-02-06 06:47:00,27.3,25.3,29.98,WNW,292,2.3,4.6,92,0.00,,OVC,0.00,WeatherDisplay:10.37,2013-02-06 11:47:00,
2013-02-06 06:52:00,27.3,25.3,29.98,WNW,292,2.7,3.5,92,0.00,,OVC,0.00,WeatherDisplay:10.37,2013-02-06 11:52:00,
2013-02-06 06:57:00,27.3,25.3,29.98,WNW,292,3.9,5.3,92,0.00,,OVC,0.00,WeatherDisplay:10.37,2013-02-06 11:57:00,
2013-02-06 07:02:00,27.3,25.0,29.99,WNW,292,3.9,5.3,91,0.00,,OVC,0.00,WeatherDisplay:10.37,2013-02-06 12:02:00,
2013-02-06 07:07:00,27.3,25.0,29.99,WNW,292,2.5,4.6,91,0.00,,OVC,0.00,WeatherDisplay:10.37,2013-02-06 12:07:00,
2013-02-06 07:12:00,27.5,25.2,29.99,WNW,292,4.0,4.2,91,0.00,,OVC,0.00,WeatherDisplay:10.37,2013-02-06 12:12:00,
2013-02-06 07:17:00,27.5,25.0,29.99,WNW,292,4.4,5.8,90,0.00,,OVC,0.00,WeatherDisplay:10.37,2013-02-06 12:17:00,
2013-02-06 07:22:00,27.9,25.1,29.99,WNW,292,5.0,6.9,89,0.00,,OVC,0.00,WeatherDisplay:10.37,2013-02-06 12:22:00,
2013-02-06 07:27:00,27.9,25.1,30.00,WNW,292,3.1,4.6,89,0.00,,OVC,0.00,WeatherDisplay:10.37,2013-02-06 12:27:00,
2013-02-06 07:32:00,27.9,25.1,30.00,WNW,292,4.8,6.9,89,0.00,,OVC,0.00,WeatherDisplay:10.37,2013-02-06 12:32:00,
2013-02-06 07:37:00,28.0,24.9,30.01,West,270,4.9,5.8,88,0.00,,OVC,0.00,WeatherDisplay:10.37,2013-02-06 12:37:00,
2013-02-06 07:42:00,28.0,24.9,30.01,West,270,6.4,6.9,88,0.00,,OVC,0.00,WeatherDisplay:10.37,2013-02-06 12:42:00,
2013-02-06 07:47:00,28.2,25.1,30.01,West,270,7.1,8.1,88,0.00,,OVC,0.00,WeatherDisplay:10.37,2013-02-06 12:47:00,
2013-02-06 07:52:00,28.4,25.3,30.01,WNW,292,5.1,5.8,88,0.00,,OVC,0.00,WeatherDisplay:10.37,2013-02-06 12:52:00,
2013-02-06 07:57:00,28.4,25.0,30.01,West,270,5.7,8.1,87,0.00,,OVC,0.00,WeatherDisplay:10.37,2013-02-06 12:57:00,
2013-02-06 08:02:00,28.6,25.2,30.02,WNW,292,4.2,6.9,87,0.00,,OVC,0.00,WeatherDisplay:10.37,2013-02-06 13:02:00,
2013-02-06 08:07:00,28.6,25.2,30.02,West,270,6.3,11.5,87,0.00,,OVC,0.00,WeatherDisplay:10.37,2013-02-06 13:07:00,
2013-02-06 08:13:00,28.6,25.2,30.03,WSW,248,6.5,6.9,87,0.00,,OVC,0.00,WeatherDisplay:10.37,2013-02-06 13:13:00,
2013-02-06 08:17:00,28.4,25.3,30.03,West,270,8.5,10.4,88,0.00,,OVC,0.00,WeatherDisplay:10.37,2013-02-06 13:17:00,
2013-02-06 08:23:00,28.2,25.4,30.03,WNW,292,6.5,9.2,89,0.00,,OVC,0.00,WeatherDisplay:10.37,2013-02-06 13:23:00,
2013-02-06 08:28:00,28.2,25.9,30.04,NW,315,6.5,10.4,91,0.00,,OVC,0.00,WeatherDisplay:10.37,2013-02-06 13:28:00,
2013-02-06 08:33:00,27.9,26.1,30.04,WNW,292,4.9,5.8,93,0.00,,OVC,0.00,WeatherDisplay:10.37,2013-02-06 13:33:00,
2013-02-06 08:38:00,27.9,26.1,30.05,West,270,4.6,4.7,93,0.00,,OVC,0.00,WeatherDisplay:10.37,2013-02-06 13:38:00,
2013-02-06 08:43:00,27.7,26.2,30.05,WNW,292,8.7,10.9,94,0.00,,OVC,0.00,WeatherDisplay:10.37,2013-02-06 13:43:00,
2013-02-06 08:48:00,27.5,26.0,30.05,NW,315,7.3,11.5,94,0.00,,OVC,0.00,WeatherDisplay:10.37,2013-02-06 13:48:00,
2013-02-06 08:53:00,27.3,25.5,30.06,West,270,8.4,12.7,93,0.00,,OVC,0.00,WeatherDisplay:10.37,2013-02-06 13:53:00,
2013-02-06 08:58:00,27.3,25.3,30.06,West,270,7.2,7.2,92,0.00,,OVC,0.00,WeatherDisplay:10.37,2013-02-06 13:58:00,
2013-02-06 09:03:00,27.1,25.1,30.07,West,270,5.2,6.9,92,0.00,,OVC,0.00,WeatherDisplay:10.37,2013-02-06 14:03:00,
2013-02-06 09:08:00,27.3,25.0,30.07,NW,315,7.7,10.4,91,0.00,,OVC,0.00,WeatherDisplay:10.37,2013-02-06 14:08:00,
2013-02-06 09:13:00,28.0,24.9,30.08,West,270,6.7,8.1,88,0.00,,OVC,0.00,WeatherDisplay:10.37,2013-02-06 14:13:00,
2013-02-06 09:18:00,28.2,24.8,30.08,West,270,7.0,8.1,87,0.00,,OVC,0.00,WeatherDisplay:10.37,2013-02-06 14:18:00,
2013-02-06 09:23:00,28.8,25.1,30.08,NW,315,5.0,8.1,86,0.00,,OVC,0.00,WeatherDisplay:10.37,2013-02-06 14:23:00,
2013-02-06 09:28:00,29.1,24.9,30.08,West,270,7.0,7.8,84,0.00,,OVC,0.00,WeatherDisplay:10.37,2013-02-06 14:28:00,
2013-02-06 09:33:00,29.1,24.6,30.08,WNW,292,5.6,6.9,83,0.00,,OVC,0.00,WeatherDisplay:10.37,2013-02-06 14:33:00,
2013-02-06 09:38:00,29.1,23.7,30.09,WNW,292,7.8,10.4,80,0.00,,OVC,0.00,WeatherDisplay:10.37,2013-02-06 14:38:00,
2013-02-06 09:43:00,28.9,23.2,30.09,WNW,292,5.9,6.9,79,0.00,,OVC,0.00,WeatherDisplay:10.37,2013-02-06 14:43:00,
2013-02-06 09:48:00,29.1,23.4,30.09,WNW,292,5.5,10.4,79,0.00,,OVC,0.00,WeatherDisplay:10.37,2013-02-06 14:48:00,
2013-02-06 09:53:00,28.8,22.5,30.10,WSW,248,7.9,10.4,77,0.00,,OVC,0.00,WeatherDisplay:10.37,2013-02-06 14:53:00,
2013-02-06 09:58:00,29.5,22.2,30.10,NW,315,7.7,9.2,74,0.00,,OVC,0.00,WeatherDisplay:10.37,2013-02-06 14:58:00,
2013-02-06 10:03:00,29.8,21.5,30.10,West,270,6.6,9.2,71,0.00,,OVC,0.00,WeatherDisplay:10.37,2013-02-06 15:03:00,
2013-02-06 10:08:00,28.8,21.9,30.10,WNW,292,9.0,13.8,75,0.00,,OVC,0.00,WeatherDisplay:10.37,2013-02-06 15:08:00,
2013-02-06 10:13:00,28.0,22.9,30.12,WNW,292,9.1,13.8,81,0.00,,OVC,0.00,WeatherDisplay:10.37,2013-02-06 15:13:00,
2013-02-06 10:18:00,27.5,23.9,30.12,WNW,292,7.6,9.2,86,0.00,,OVC,0.00,WeatherDisplay:10.37,2013-02-06 15:18:00,
2013-02-06 10:23:00,27.5,24.7,30.12,NW,315,5.2,6.9,89,0.00,,OVC,0.00,WeatherDisplay:10.37,2013-02-06 15:23:00,
2013-02-06 10:28:00,28.4,24.2,30.12,WNW,292,5.7,6.9,84,0.00,,OVC,0.00,WeatherDisplay:10.37,2013-02-06 15:28:00,
2013-02-06 10:33:00,28.4,24.5,30.12,WNW,292,4.2,5.8,85,0.00,,OVC,0.00,WeatherDisplay:10.37,2013-02-06 15:33:00,
2013-02-06 10:38:00,27.1,24.6,30.12,WNW,292,7.5,10.4,90,0.00,,OVC,0.00,WeatherDisplay:10.37,2013-02-06 15:38:00,
2013-02-06 10:43:00,26.4,24.1,30.12,WNW,292,5.9,7.3,91,0.00,,OVC,0.00,WeatherDisplay:10.37,2013-02-06 15:43:00,
2013-02-06 10:48:00,26.2,23.4,30.14,WNW,292,6.7,9.2,89,0.00,,OVC,0.00,WeatherDisplay:10.37,2013-02-06 15:48:00,
2013-02-06 10:53:00,26.8,23.2,30.14,West,270,7.0,8.3,86,0.00,,OVC,0.00,WeatherDisplay:10.37,2013-02-06 15:53:00,
2013-02-06 10:58:00,26.6,22.1,30.14,WNW,292,8.4,13.8,83,0.00,,OVC,0.00,WeatherDisplay:10.37,2013-02-06 15:58:00,
2013-02-06 11:03:00,27.7,21.4,30.15,NW,315,6.8,11.4,77,0.00,,OVC,0.00,WeatherDisplay:10.37,2013-02-06 16:03:00,
2013-02-06 11:08:00,27.9,21.3,30.15,WNW,292,7.6,9.2,76,0.00,,OVC,0.00,WeatherDisplay:10.37,2013-02-06 16:08:00,
2013-02-06 11:13:00,27.1,20.2,30.15,NW,315,9.7,16.0,75,0.00,,OVC,0.00,WeatherDisplay:10.37,2013-02-06 16:13:00,
2013-02-06 11:18:00,27.5,20.3,30.15,WNW,292,5.8,6.9,74,0.00,,OVC,0.00,WeatherDisplay:10.37,2013-02-06 16:18:00,
2013-02-06 11:23:00,28.9,20.3,30.15,West,270,6.4,6.9,70,0.00,,OVC,0.00,WeatherDisplay:10.37,2013-02-06 16:23:00,
2013-02-06 11:28:00,29.8,20.5,30.15,West,270,6.7,8.1,68,0.00,,OVC,0.00,WeatherDisplay:10.37,2013-02-06 16:28:00,
2013-02-06 11:33:00,28.0,18.5,30.15,WNW,292,8.8,10.4,67,0.00,,OVC,0.00,WeatherDisplay:10.37,2013-02-06 16:33:00,
2013-02-06 11:38:00,28.9,18.6,30.16,NW,315,7.8,13.8,65,0.00,,OVC,0.00,WeatherDisplay:10.37,2013-02-06 16:38:00,
2013-02-06 11:43:00,28.8,18.5,30.16,NW,315,6.7,8.1,65,0.00,,OVC,0.00,WeatherDisplay:10.37,2013-02-06 16:43:00,
2013-02-06 11:48:00,28.9,18.2,30.16,West,270,12.5,16.1,64,0.00,,OVC,0.00,WeatherDisplay:10.37,2013-02-06 16:48:00,
2013-02-06 11:53:00,29.8,18.0,30.16,NNW,338,9.8,11.5,61,0.00,,OVC,0.00,WeatherDisplay:10.37,2013-02-06 16:53:00,
2013-02-06 11:58:00,28.9,17.5,30.16,NW,315,9.9,11.5,62,0.00,,OVC,0.00,WeatherDisplay:10.37,2013-02-06 16:58:00,
2013-02-06 12:03:00,27.9,16.9,30.16,WNW,292,9.1,13.8,63,0.00,,OVC,0.00,WeatherDisplay:10.37,2013-02-06 17:03:00,
2013-02-06 12:08:00,28.4,16.7,30.16,WNW,292,9.0,13.5,61,0.00,,OVC,0.00,WeatherDisplay:10.37,2013-02-06 17:08:00,
2013-02-06 12:13:00,27.3,15.2,30.17,WNW,292,8.4,11.5,60,0.00,,OVC,0.00,WeatherDisplay:10.37,2013-02-06 17:13:00,
2013-02-06 12:18:00,27.7,14.8,30.17,NNW,338,12.4,12.7,58,0.00,,OVC,0.00,WeatherDisplay:10.37,2013-02-06 17:18:00,
2013-02-06 12:23:00,28.0,14.3,30.17,WNW,292,11.0,12.7,56,0.00,,OVC,0.00,WeatherDisplay:10.37,2013-02-06 17:23:00,
2013-02-06 12:28:00,27.9,13.8,30.18,West,270,9.9,10.4,55,0.00,,OVC,0.00,WeatherDisplay:10.37,2013-02-06 17:28:00,
2013-02-06 12:33:00,27.1,13.1,30.18,WNW,292,10.1,12.7,55,0.00,,OVC,0.00,WeatherDisplay:10.37,2013-02-06 17:33:00,
2013-02-06 12:38:00,27.7,13.2,30.18,NW,315,8.0,8.8,54,0.00,,OVC,0.00,WeatherDisplay:10.37,2013-02-06 17:38:00,
2013-02-06 12:43:00,27.7,13.2,30.18,WNW,292,8.0,10.4,54,0.00,,OVC,0.00,WeatherDisplay:10.37,2013-02-06 17:43:00,
2013-02-06 12:48:00,28.2,12.8,30.18,West,270,8.0,8.3,52,0.00,,OVC,0.00,WeatherDisplay:10.37,2013-02-06 17:48:00,
2013-02-06 12:53:00,28.0,12.2,30.18,NW,315,8.4,9.2,51,0.00,,OVC,0.00,WeatherDisplay:10.37,2013-02-06 17:53:00,
2013-02-06 12:58:00,28.6,12.7,30.18,NW,315,6.2,8.1,51,0.00,,OVC,0.00,WeatherDisplay:10.37,2013-02-06 17:58:00,
2013-02-06 13:03:00,29.1,12.3,30.19,WNW,292,8.4,9.4,49,0.00,,OVC,0.00,WeatherDisplay:10.37,2013-02-06 18:03:00,
2013-02-06 13:08:00,28.9,11.6,30.19,WNW,292,7.2,8.1,48,0.00,,OVC,0.00,WeatherDisplay:10.37,2013-02-06 18:08:00,
2013-02-06 13:13:00,28.4,11.2,30.20,West,270,7.1,10.4,48,0.00,,OVC,0.00,WeatherDisplay:10.37,2013-02-06 18:13:00,
2013-02-06 13:18:00,28.8,11.1,30.20,WNW,292,9.6,10.4,47,0.00,,OVC,0.00,WeatherDisplay:10.37,2013-02-06 18:18:00,
2013-02-06 13:23:00,28.6,10.4,30.20,NW,315,6.6,7.3,46,0.00,,OVC,0.00,WeatherDisplay:10.37,2013-02-06 18:23:00,
2013-02-06 13:28:00,28.8,11.1,30.20,WNW,292,5.8,5.8,47,0.00,,OVC,0.00,WeatherDisplay:10.37,2013-02-06 18:28:00,
2013-02-06 13:33:00,28.6,9.9,30.20,WNW,292,7.4,9.2,45,0.00,,OVC,0.00,WeatherDisplay:10.37,2013-02-06 18:33:00,
2013-02-06 13:38:00,28.6,9.4,30.20,WNW,292,8.5,10.4,44,0.00,,OVC,0.00,WeatherDisplay:10.37,2013-02-06 18:38:00,
2013-02-06 13:43:00,28.0,8.9,30.20,West,270,7.3,9.2,44,0.00,,OVC,0.00,WeatherDisplay:10.37,2013-02-06 18:43:00,
2013-02-06 13:48:00,28.4,9.2,30.20,West,270,7.7,10.4,44,0.00,,OVC,0.00,WeatherDisplay:10.37,2013-02-06 18:48:00,
2013-02-06 13:53:00,27.5,7.4,30.20,NNW,338,7.8,15.0,42,0.00,,OVC,0.00,WeatherDisplay:10.37,2013-02-06 18:53:00,
2013-02-06 13:58:00,27.5,7.4,30.20,NW,315,8.2,9.2,42,0.00,,OVC,0.00,WeatherDisplay:10.37,2013-02-06 18:58:00,
2013-02-06 14:03:00,27.0,7.4,30.22,West,270,9.1,10.4,43,0.00,,OVC,0.00,WeatherDisplay:10.37,2013-02-06 19:03:00,
2013-02-06 14:08:00,27.1,7.5,30.22,West,270,9.4,10.4,43,0.00,,OVC,0.00,WeatherDisplay:10.37,2013-02-06 19:08:00,
2013-02-06 14:13:00,27.1,8.0,30.22,West,270,8.2,9.2,44,0.00,,OVC,0.00,WeatherDisplay:10.37,2013-02-06 19:13:00,
2013-02-06 14:18:00,27.5,8.9,30.22,West,270,8.2,10.9,45,0.00,,OVC,0.00,WeatherDisplay:10.37,2013-02-06 19:18:00,
2013-02-06 14:23:00,28.0,8.4,30.22,West,270,9.0,9.4,43,0.00,,OVC,0.00,WeatherDisplay:10.37,2013-02-06 19:23:00,
2013-02-06 14:28:00,27.9,6.7,30.23,WNW,292,10.0,11.5,40,0.00,,OVC,0.00,WeatherDisplay:10.37,2013-02-06 19:28:00,
2013-02-06 14:33:00,27.7,7.6,30.23,WNW,292,8.7,10.9,42,0.00,,OVC,0.00,WeatherDisplay:10.37,2013-02-06 19:33:00,
2013-02-06 14:38:00,27.9,7.2,30.23,NW,315,8.1,9.9,41,0.00,,OVC,0.00,WeatherDisplay:10.37,2013-02-06 19:38:00,
2013-02-06 14:43:00,27.5,7.4,30.23,WNW,292,7.0,10.4,42,0.00,,OVC,0.00,WeatherDisplay:10.37,2013-02-06 19:43:00,
2013-02-06 14:48:00,28.0,8.4,30.24,West,270,8.1,11.5,43,0.00,,OVC,0.00,WeatherDisplay:10.37,2013-02-06 19:48:00,
2013-02-06 14:53:00,27.5,8.9,30.24,WNW,292,7.9,9.2,45,0.00,,OVC,0.00,WeatherDisplay:10.37,2013-02-06 19:53:00,
2013-02-06 14:58:00,27.9,8.8,30.24,WNW,292,8.1,10.4,44,0.00,,OVC,0.00,WeatherDisplay:10.37,2013-02-06 19:58:00,
2013-02-06 15:03:00,27.9,8.3,30.24,WNW,292,9.3,11.5,43,0.00,,OVC,0.00,WeatherDisplay:10.37,2013-02-06 20:03:00,
2013-02-06 15:08:00,26.4,8.9,30.24,NW,315,7.5,9.2,47,0.00,,OVC,0.00,WeatherDisplay:10.37,2013-02-06 20:08:00,
2013-02-06 15:13:00,25.9,8.9,30.25,WNW,292,7.2,8.1,48,0.00,,OVC,0.00,WeatherDisplay:10.37,2013-02-06 20:13:00,
2013-02-06 15:18:00,25.9,9.8,30.25,West,270,6.0,7.8,50,0.00,,OVC,0.00,WeatherDisplay:10.37,2013-02-06 20:18:00,
2013-02-06 15:23:00,26.1,10.0,30.25,NW,315,7.9,9.2,50,0.00,,OVC,0.00,WeatherDisplay:10.37,2013-02-06 20:23:00,
2013-02-06 15:28:00,25.3,10.1,30.26,WNW,292,8.1,9.2,52,0.00,,OVC,0.00,WeatherDisplay:10.37,2013-02-06 20:28:00,
2013-02-06 15:33:00,25.0,9.8,30.26,NW,315,7.9,12.7,52,0.00,,OVC,0.00,WeatherDisplay:10.37,2013-02-06 20:33:00,
2013-02-06 15:38:00,25.3,10.1,30.26,WNW,292,5.7,8.1,52,0.00,,OVC,0.00,WeatherDisplay:10.37,2013-02-06 20:38:00,
2013-02-06 15:43:00,24.6,10.3,30.26,WNW,292,4.9,5.8,54,0.00,,OVC,0.00,WeatherDisplay:10.37,2013-02-06 20:43:00,
2013-02-06 15:48:00,24.4,10.5,30.27,WNW,292,4.9,6.9,55,0.00,,OVC,0.00,WeatherDisplay:10.37,2013-02-06 20:48:00,
2013-02-06 15:53:00,24.6,10.7,30.27,WNW,292,4.8,6.9,55,0.00,,OVC,0.00,WeatherDisplay:10.37,2013-02-06 20:53:00,
2013-02-06 15:58:00,24.3,10.4,30.27,West,270,6.3,9.2,55,0.00,,OVC,0.00,WeatherDisplay:10.37,2013-02-06 20:58:00,
2013-02-06 16:03:00,24.1,10.6,30.27,West,270,5.5,7.3,56,0.00,,OVC,0.00,WeatherDisplay:10.37,2013-02-06 21:03:00,
2013-02-06 16:08:00,23.7,10.7,30.27,WNW,292,3.5,4.6,57,0.00,,OVC,0.00,WeatherDisplay:10.37,2013-02-06 21:08:00,
2013-02-06 16:13:00,23.7,10.7,30.28,WNW,292,4.9,4.9,57,0.00,,OVC,0.00,WeatherDisplay:10.37,2013-02-06 21:13:00,
2013-02-06 16:18:00,23.7,10.7,30.28,NW,315,6.4,6.9,57,0.00,,OVC,0.00,WeatherDisplay:10.37,2013-02-06 21:18:00,
2013-02-06 16:23:00,23.2,9.8,30.28,NW,315,6.6,8.3,56,0.00,,OVC,0.00,WeatherDisplay:10.37,2013-02-06 21:23:00,
2013-02-06 16:28:00,23.2,10.2,30.28,NW,315,5.8,5.8,57,0.00,,OVC,0.00,WeatherDisplay:10.37,2013-02-06 21:28:00,
2013-02-06 16:33:00,22.8,9.8,30.28,WNW,292,6.1,9.2,57,0.00,,OVC,0.00,WeatherDisplay:10.37,2013-02-06 21:33:00,
2013-02-06 16:38:00,22.8,10.2,30.28,WNW,292,6.4,8.3,58,0.00,,OVC,0.00,WeatherDisplay:10.37,2013-02-06 21:38:00,
2013-02-06 16:43:00,22.6,10.0,30.28,West,270,7.3,9.2,58,0.00,,OVC,0.00,WeatherDisplay:10.37,2013-02-06 21:43:00,
2013-02-06 16:48:00,22.3,9.7,30.29,WNW,292,4.7,8.1,58,0.00,,OVC,0.00,WeatherDisplay:10.37,2013-02-06 21:48:00,
2013-02-06 16:53:00,22.1,9.9,30.29,NW,315,5.8,5.8,59,0.00,,OVC,0.00,WeatherDisplay:10.37,2013-02-06 21:53:00,
2013-02-06 16:58:00,22.1,9.9,30.29,West,270,4.6,6.9,59,0.00,,OVC,0.00,WeatherDisplay:10.37,2013-02-06 21:58:00,
2013-02-06 17:03:00,21.7,9.9,30.29,WNW,292,4.9,5.8,60,0.00,,OVC,0.00,WeatherDisplay:10.37,2013-02-06 22:03:00,
2013-02-06 17:08:00,21.6,10.2,30.29,WNW,292,4.9,5.8,61,0.00,,OVC,0.00,WeatherDisplay:10.37,2013-02-06 22:08:00,
2013-02-06 17:13:00,21.4,10.0,30.30,WNW,292,4.5,10.4,61,0.00,,OVC,0.00,WeatherDisplay:10.37,2013-02-06 22:13:00,
2013-02-06 17:18:00,21.2,9.8,30.30,WNW,292,6.4,9.2,61,0.00,,OVC,0.00,WeatherDisplay:10.37,2013-02-06 22:18:00,
2013-02-06 17:23:00,21.0,9.6,30.30,West,270,6.2,8.1,61,0.00,,OVC,0.00,WeatherDisplay:10.37,2013-02-06 22:23:00,
2013-02-06 17:28:00,21.0,10.0,30.31,WNW,292,3.9,5.8,62,0.00,,OVC,0.00,WeatherDisplay:10.37,2013-02-06 22:28:00,
2013-02-06 17:33:00,21.0,10.0,30.31,WNW,292,3.7,3.7,62,0.00,,OVC,0.00,WeatherDisplay:10.37,2013-02-06 22:33:00,
2013-02-06 17:39:00,20.5,9.9,30.31,WNW,292,4.2,4.2,63,0.00,,OVC,0.00,WeatherDisplay:10.37,2013-02-06 22:39:00,
2013-02-06 17:43:00,20.3,9.7,30.31,West,270,3.9,4.6,63,0.00,,OVC,0.00,WeatherDisplay:10.37,2013-02-06 22:43:00,
2013-02-06 17:49:00,19.9,9.7,30.32,WNW,292,3.2,3.5,64,0.00,,OVC,0.00,WeatherDisplay:10.37,2013-02-06 22:49:00,
2013-02-06 17:54:00,19.9,9.7,30.32,West,270,2.7,4.6,64,0.00,,OVC,0.00,WeatherDisplay:10.37,2013-02-06 22:54:00,
2013-02-06 17:59:00,19.9,9.7,30.32,WNW,292,3.7,5.8,64,0.00,,OVC,0.00,WeatherDisplay:10.37,2013-02-06 22:59:00,
2013-02-06 18:04:00,19.8,9.9,30.33,WSW,248,2.0,2.3,65,0.00,,OVC,0.00,WeatherDisplay:10.37,2013-02-06 23:04:00,
2013-02-06 18:09:00,19.4,9.9,30.33,WSW,248,2.2,2.3,66,0.00,,OVC,0.00,WeatherDisplay:10.37,2013-02-06 23:09:00,
2013-02-06 18:14:00,19.2,9.7,30.33,WSW,248,4.1,4.6,66,0.00,,OVC,0.00,WeatherDisplay:10.37,2013-02-06 23:14:00,
2013-02-06 18:19:00,19.2,9.7,30.33,WSW,248,2.7,2.7,66,0.00,,OVC,0.00,WeatherDisplay:10.37,2013-02-06 23:19:00,
2013-02-06 18:24:00,18.9,9.7,30.33,WSW,248,3.0,3.0,67,0.00,,OVC,0.00,WeatherDisplay:10.37,2013-02-06 23:24:00,
2013-02-06 18:29:00,18.7,9.6,30.33,WSW,248,0.7,2.3,67,0.00,,OVC,0.00,WeatherDisplay:10.37,2013-02-06 23:29:00,
2013-02-06 18:34:00,18.3,9.5,30.33,WSW,248,2.0,2.3,68,0.00,,OVC,0.00,WeatherDisplay:10.37,2013-02-06 23:34:00,
2013-02-06 18:39:00,18.0,9.5,30.33,WSW,248,1.9,2.3,69,0.00,,OVC,0.00,WeatherDisplay:10.37,2013-02-06 23:39:00,
2013-02-06 18:44:00,17.8,9.7,30.33,WSW,248,0.5,1.1,70,0.00,,OVC,0.00,WeatherDisplay:10.37,2013-02-06 23:44:00,
2013-02-06 18:49:00,17.2,9.4,30.34,WSW,248,1.1,1.1,71,0.00,,OVC,0.00,WeatherDisplay:10.37,2013-02-06 23:49:00,
2013-02-06 18:54:00,16.7,9.2,30.34,WSW,248,0.0,0.0,72,0.00,,OVC,0.00,WeatherDisplay:10.37,2013-02-06 23:54:00,
2013-02-06 18:59:00,16.5,9.7,30.34,WSW,248,1.9,2.3,74,0.00,,OVC,0.00,WeatherDisplay:10.37,2013-02-06 23:59:00,
2013-02-06 19:04:00,16.2,9.4,30.34,WSW,248,0.0,0.0,74,0.00,,OVC,0.00,WeatherDisplay:10.37,2013-02-07 00:04:00,
2013-02-06 19:09:00,15.1,8.6,30.34,WSW,248,0.0,0.0,75,0.00,,OVC,0.00,WeatherDisplay:10.37,2013-02-07 00:09:00,
2013-02-06 19:14:00,14.7,8.2,30.35,WSW,248,0.0,0.0,75,0.00,,OVC,0.00,WeatherDisplay:10.37,2013-02-07 00:14:00,
2013-02-06 19:19:00,14.2,7.7,30.35,WSW,248,0.1,1.1,75,0.00,,OVC,0.00,WeatherDisplay:10.37,2013-02-07 00:19:00,
2013-02-06 19:24:00,14.4,8.8,30.35,WSW,248,0.6,1.1,78,0.00,,OVC,0.00,WeatherDisplay:10.37,2013-02-07 00:24:00,
2013-02-06 19:29:00,13.8,8.2,30.35,WSW,248,0.0,0.0,78,0.00,,OVC,0.00,WeatherDisplay:10.37,2013-02-07 00:29:00,
2013-02-06 19:34:00,13.3,8.3,30.35,WSW,248,0.0,0.0,80,0.00,,OVC,0.00,WeatherDisplay:10.37,2013-02-07 00:34:00,
2013-02-06 19:39:00,12.9,8.4,30.35,WSW,248,0.0,0.0,82,0.00,,OVC,0.00,WeatherDisplay:10.37,2013-02-07 00:39:00,
2013-02-06 19:44:00,12.7,7.7,30.35,WSW,248,0.0,0.0,80,0.00,,OVC,0.00,WeatherDisplay:10.37,2013-02-07 00:44:00,
2013-02-06 19:49:00,12.6,8.1,30.36,WSW,248,0.0,0.0,82,0.00,,OVC,0.00,WeatherDisplay:10.37,2013-02-07 00:49:00,
2013-02-06 19:54:00,12.4,8.5,30.36,WSW,248,0.0,0.0,84,0.00,,OVC,0.00,WeatherDisplay:10.37,2013-02-07 00:54:00,
2013-02-06 19:59:00,12.4,8.5,30.36,WSW,248,0.0,0.0,84,0.00,,OVC,0.00,WeatherDisplay:10.37,2013-02-07 00:59:00,
2013-02-06 20:04:00,12.4,9.0,30.36,WSW,248,0.3,1.1,86,0.00,,OVC,0.00,WeatherDisplay:10.37,2013-02-07 01:04:00,
2013-02-06 20:09:00,12.0,8.6,30.36,WSW,248,0.0,0.0,86,0.00,,OVC,0.00,WeatherDisplay:10.37,2013-02-07 01:09:00,
2013-02-06 20:14:00,11.8,8.4,30.37,WSW,248,0.0,0.0,86,0.00,,OVC,0.00,WeatherDisplay:10.37,2013-02-07 01:14:00,
2013-02-06 20:19:00,12.6,9.7,30.37,WSW,248,1.9,2.3,88,0.00,,OVC,0.00,WeatherDisplay:10.37,2013-02-07 01:19:00,
2013-02-06 20:24:00,12.6,9.7,30.38,WSW,248,0.1,1.1,88,0.00,,OVC,0.00,WeatherDisplay:10.37,2013-02-07 01:24:00,
2013-02-06 20:29:00,13.1,10.0,30.38,WSW,248,1.4,3.5,87,0.00,,OVC,0.00,WeatherDisplay:10.37,2013-02-07 01:29:00,
2013-02-06 20:34:00,14.4,10.2,30.38,WSW,248,1.7,1.7,83,0.00,,OVC,0.00,WeatherDisplay:10.37,2013-02-07 01:34:00,
2013-02-06 20:39:00,14.7,10.2,30.39,WSW,248,1.9,2.3,82,0.00,,OVC,0.00,WeatherDisplay:10.37,2013-02-07 01:39:00,
2013-02-06 20:44:00,14.4,9.9,30.39,WSW,248,0.0,0.0,82,0.00,,OVC,0.00,WeatherDisplay:10.37,2013-02-07 01:44:00,
2013-02-06 20:49:00,13.6,9.1,30.39,WSW,248,0.0,0.0,82,0.00,,OVC,0.00,WeatherDisplay:10.37,2013-02-07 01:49:00,
2013-02-06 20:54:00,13.5,9.0,30.39,WSW,248,0.0,0.0,82,0.00,,OVC,0.00,WeatherDisplay:10.37,2013-02-07 01:54:00,
2013-02-06 20:59:00,13.3,9.1,30.39,WSW,248,0.0,0.0,83,0.00,,OVC,0.00,WeatherDisplay:10.37,2013-02-07 01:59:00,
2013-02-06 21:04:00,12.7,9.0,30.39,WSW,248,0.0,0.0,85,0.00,,OVC,0.00,WeatherDisplay:10.37,2013-02-07 02:04:00,
2013-02-06 21:09:00,12.2,8.6,30.39,WSW,248,0.0,0.0,85,0.00,,OVC,0.00,WeatherDisplay:10.37,2013-02-07 02:09:00,
2013-02-06 21:14:00,11.8,8.4,30.40,WSW,248,0.0,0.0,86,0.00,,OVC,0.00,WeatherDisplay:10.37,2013-02-07 02:14:00,
2013-02-06 21:19:00,11.8,8.7,30.40,WSW,248,0.0,0.0,87,0.00,,OVC,0.00,WeatherDisplay:10.37,2013-02-07 02:19:00,
2013-02-06 21:24:00,11.5,8.1,30.40,WSW,248,0.0,0.0,86,0.00,,OVC,0.00,WeatherDisplay:10.37,2013-02-07 02:24:00,
2013-02-06 21:29:00,11.1,7.7,30.40,WSW,248,0.0,0.0,86,0.00,,OVC,0.00,WeatherDisplay:10.37,2013-02-07 02:29:00,
2013-02-06 21:34:00,11.1,9.0,30.40,WSW,248,0.5,1.1,91,0.00,,OVC,0.00,WeatherDisplay:10.37,2013-02-07 02:34:00,
2013-02-06 21:39:00,10.8,8.2,30.40,WSW,248,0.0,0.0,89,0.00,,OVC,0.00,WeatherDisplay:10.37,2013-02-07 02:39:00,
2013-02-06 21:44:00,10.6,8.0,30.40,WSW,248,0.0,0.0,89,0.00,,OVC,0.00,WeatherDisplay:10.37,2013-02-07 02:44:00,
2013-02-06 21:49:00,10.4,8.0,30.40,WSW,248,0.0,0.0,90,0.00,,OVC,0.00,WeatherDisplay:10.37,2013-02-07 02:49:00,
2013-02-06 21:54:00,10.2,7.9,30.40,WSW,248,0.0,0.0,90,0.00,,OVC,0.00,WeatherDisplay:10.37,2013-02-07 02:54:00,
2013-02-06 21:59:00,10.2,7.9,30.40,WSW,248,0.0,0.0,90,0.00,,OVC,0.00,WeatherDisplay:10.37,2013-02-07 02:59:00,
2013-02-06 22:04:00,10.2,8.3,30.40,WSW,248,0.0,0.0,92,0.00,,OVC,0.00,WeatherDisplay:10.37,2013-02-07 03:04:00,
2013-02-06 22:09:00,10.0,8.1,30.40,WSW,248,0.0,0.0,92,0.00,,OVC,0.00,WeatherDisplay:10.37,2013-02-07 03:09:00,
2013-02-06 22:14:00,9.9,7.8,30.40,WSW,248,0.0,0.0,91,0.00,,OVC,0.00,WeatherDisplay:10.37,2013-02-07 03:14:00,
2013-02-06 22:19:00,9.9,8.3,30.40,WSW,248,0.0,0.0,93,0.00,,OVC,0.00,WeatherDisplay:10.37,2013-02-07 03:19:00,
2013-02-06 22:24:00,9.9,8.3,30.40,WSW,248,0.0,0.0,93,0.00,,OVC,0.00,WeatherDisplay:10.37,2013-02-07 03:24:00,
2013-02-06 22:29:00,9.9,8.3,30.40,WSW,248,0.0,0.0,93,0.00,,OVC,0.00,WeatherDisplay:10.37,2013-02-07 03:29:00,
2013-02-06 22:34:00,9.7,8.1,30.40,WSW,248,0.0,0.0,93,0.00,,OVC,0.00,WeatherDisplay:10.37,2013-02-07 03:34:00,
2013-02-06 22:39:00,9.3,7.7,30.40,WSW,248,0.0,0.0,93,0.00,,OVC,0.00,WeatherDisplay:10.37,2013-02-07 03:39:00,
2013-02-06 22:44:00,9.5,8.1,30.40,WSW,248,0.0,0.0,94,0.00,,OVC,0.00,WeatherDisplay:10.37,2013-02-07 03:44:00,
2013-02-06 22:49:00,9.1,7.5,30.40,WSW,248,0.0,0.0,93,0.00,,OVC,0.00,WeatherDisplay:10.37,2013-02-07 03:49:00,
2013-02-06 22:54:00,9.0,7.4,30.40,WSW,248,0.0,0.0,93,0.00,,OVC,0.00,WeatherDisplay:10.37,2013-02-07 03:54:00,
2013-02-06 22:59:00,8.8,7.2,30.40,WSW,248,0.0,0.0,93,0.00,,OVC,0.00,WeatherDisplay:10.37,2013-02-07 03:59:00,
2013-02-06 23:04:00,8.8,7.4,30.39,WSW,248,0.0,0.0,94,0.00,,OVC,0.00,WeatherDisplay:10.37,2013-02-07 04:04:00,
2013-02-06 23:09:00,8.6,7.2,30.39,WSW,248,0.0,0.0,94,0.00,,OVC,0.00,WeatherDisplay:10.37,2013-02-07 04:09:00,
2013-02-06 23:14:00,8.4,7.0,30.39,WSW,248,0.0,0.0,94,0.00,,OVC,0.00,WeatherDisplay:10.37,2013-02-07 04:14:00,
2013-02-06 23:19:00,8.1,6.7,30.39,WSW,248,0.0,0.0,94,0.00,,OVC,0.00,WeatherDisplay:10.37,2013-02-07 04:19:00,
2013-02-06 23:24:00,8.1,7.0,30.40,WSW,248,0.0,0.0,95,0.00,,OVC,0.00,WeatherDisplay:10.37,2013-02-07 04:24:00,
2013-02-06 23:29:00,7.9,6.5,30.40,WSW,248,0.0,0.0,94,0.00,,OVC,0.00,WeatherDisplay:10.37,2013-02-07 04:29:00,
2013-02-06 23:34:00,7.7,6.3,30.40,WSW,248,0.0,0.0,94,0.00,,OVC,0.00,WeatherDisplay:10.37,2013-02-07 04:34:00,
2013-02-06 23:39:00,8.6,7.5,30.42,WSW,248,0.0,0.0,95,0.00,,OVC,0.00,WeatherDisplay:10.37,2013-02-07 04:39:00,
2013-02-06 23:44:00,8.4,7.3,30.42,WSW,248,0.0,0.0,95,0.00,,OVC,0.00,WeatherDisplay:10.37,2013-02-07 04:44:00,
2013-02-06 23:49:00,9.0,7.9,30.42,WSW,248,0.0,0.0,95,0.00,,OVC,0.00,WeatherDisplay:10.37,2013-02-07 04:49:00,
2013-02-06 23:54:00,9.0,7.9,30.42,WSW,248,0.0,0.0,95,0.00,,OVC,0.00,WeatherDisplay:10.37,2013-02-07 04:54:00,
2013-02-06 23:59:00,9.0,7.9,30.42,WSW,248,0.0,0.0,95,0.00,,OVC,0.00,WeatherDisplay:10.37,2013-02-07 04:59:00,